Back to catalog

FENGYUN 1C DEB

AliveSSO
NORAD 29795·DEBRIS·🇨🇳 China

Launched May 10, 1999 from Taiyuan Satellite Launch Center

Loading…

Next Passes (next 24 hours)

TLE

FreshSource: Space-Track

Epoch: Sep 11, 2026, 20:25 UTC

1 29795U 99025CM  26254.85073509  .00000103  00000-0  10687-3 0  9992
2 29795  98.9062  18.4109 0110880 247.5005 241.1867 13.93019943998672

Track FENGYUN 1C DEB in real time with AllMySat

Download on the App Store